ZKJEE NZNP-NZWN

Flight info

Callsign ZKJEE
Flight time 0h 59m
Altitude 10000
Route DAPNO Y738 TPAPA
Aircraft DHC6/L-SDFGR/G

Departure

Time 2026-04-22 05:50
Airport New Plymouth Airport (NZNP)

Arrival

Time 2026-04-22 06:49
Airport Wellington International Airport (NZWN)
Time Latitude Longitude Altitude Speed Heading
2026-04-22 05:45 -39.01039 174.17022 106 ft 0 kts 66°
2026-04-22 05:49 -39.00981 174.17188 106 ft 61 kts 66°
2026-04-22 05:49 -39.00705 174.17983 130 ft 120 kts 66°
2026-04-22 05:50 -39.00386 174.18897 570 ft 111 kts 70°
2026-04-22 05:50 -39.00053 174.19830 909 ft 119 kts 76°
2026-04-22 05:50 -38.99743 174.20846 1325 ft 122 kts 82°
2026-04-22 05:50 -38.99408 174.21873 1702 ft 128 kts 81°
2026-04-22 05:51 -38.99042 174.22940 2071 ft 134 kts 78°
2026-04-22 05:51 -38.98646 174.24066 2401 ft 143 kts 72°
2026-04-22 05:51 -38.98219 174.25236 2856 ft 138 kts 72°
2026-04-22 05:51 -38.97810 174.26346 3262 ft 136 kts 74°
2026-04-22 05:52 -38.97574 174.27450 3586 ft 129 kts 101°
2026-04-22 05:52 -38.98059 174.28324 3935 ft 123 kts 154°
2026-04-22 05:52 -38.98904 174.28502 4308 ft 125 kts 174°
2026-04-22 05:52 -38.99794 174.28530 4666 ft 127 kts 176°
2026-04-22 05:53 -39.00634 174.28548 4997 ft 129 kts 177°
2026-04-22 05:53 -39.01566 174.28574 5363 ft 130 kts 176°
2026-04-22 05:53 -39.02475 174.28605 5716 ft 131 kts 176°
2026-04-22 05:53 -39.03387 174.28636 6070 ft 131 kts 177°
2026-04-22 05:54 -39.04283 174.28656 6414 ft 131 kts 178°
2026-04-22 05:54 -39.05217 174.28680 6773 ft 131 kts 178°
2026-04-22 05:54 -39.06110 174.28710 7116 ft 131 kts 178°
2026-04-22 05:54 -39.07037 174.28747 7471 ft 131 kts 178°
2026-04-22 05:55 -39.07952 174.28790 7823 ft 131 kts 178°
2026-04-22 05:55 -39.08864 174.28828 8172 ft 131 kts 179°
2026-04-22 05:55 -39.09771 174.28863 8520 ft 131 kts 179°
2026-04-22 05:55 -39.10685 174.28905 8871 ft 131 kts 179°
2026-04-22 05:56 -39.11603 174.28949 9223 ft 131 kts 179°
2026-04-22 05:56 -39.12523 174.28985 9575 ft 131 kts 180°
2026-04-22 05:56 -39.13428 174.29024 9861 ft 136 kts 180°
2026-04-22 05:56 -39.14416 174.29069 9979 ft 149 kts 180°
2026-04-22 05:57 -39.15494 174.29118 10006 ft 161 kts 180°
2026-04-22 05:57 -39.16654 174.29168 10006 ft 169 kts 180°
2026-04-22 05:57 -39.17821 174.29146 10002 ft 169 kts 185°
2026-04-22 05:57 -39.19005 174.28986 10001 ft 169 kts 188°
2026-04-22 05:58 -39.20155 174.28792 10000 ft 169 kts 188°
2026-04-22 05:58 -39.21334 174.28610 10000 ft 170 kts 187°
2026-04-22 05:58 -39.22513 174.28452 10000 ft 170 kts 187°
2026-04-22 05:58 -39.23682 174.28283 10000 ft 170 kts 187°
2026-04-22 05:59 -39.24856 174.28123 10000 ft 170 kts 187°
2026-04-22 05:59 -39.26033 174.27954 10000 ft 170 kts 187°
2026-04-22 05:59 -39.27209 174.27794 10000 ft 170 kts 187°
2026-04-22 05:59 -39.28367 174.27628 10000 ft 170 kts 187°
2026-04-22 06:00 -39.29572 174.27463 10000 ft 170 kts 187°
2026-04-22 06:00 -39.30736 174.27298 10000 ft 170 kts 187°
2026-04-22 06:00 -39.31928 174.27134 10000 ft 170 kts 187°
2026-04-22 06:00 -39.33093 174.26968 10000 ft 170 kts 187°
2026-04-22 06:01 -39.34276 174.26805 10000 ft 170 kts 187°
2026-04-22 06:01 -39.35428 174.26642 10000 ft 170 kts 187°
2026-04-22 06:01 -39.36607 174.26477 10000 ft 170 kts 187°
2026-04-22 06:01 -39.37805 174.26310 10000 ft 170 kts 187°
2026-04-22 06:02 -39.38981 174.26138 10002 ft 170 kts 187°
2026-04-22 06:02 -39.40154 174.25977 10002 ft 170 kts 187°
2026-04-22 06:02 -39.41330 174.25807 10002 ft 170 kts 187°
2026-04-22 06:02 -39.42521 174.25645 10002 ft 170 kts 187°
2026-04-22 06:03 -39.43686 174.25477 10002 ft 170 kts 187°
2026-04-22 06:03 -39.44879 174.25317 10002 ft 170 kts 186°
2026-04-22 06:03 -39.46051 174.25374 10003 ft 171 kts 176°
2026-04-22 06:03 -39.47244 174.25575 10001 ft 172 kts 174°
2026-04-22 06:04 -39.48027 174.25724 10001 ft 172 kts 174°
2026-04-22 06:04 -39.49608 174.26007 10000 ft 172 kts 174°
2026-04-22 06:04 -39.50791 174.26214 10000 ft 172 kts 174°
2026-04-22 06:04 -39.51582 174.26352 10000 ft 172 kts 174°
2026-04-22 06:05 -39.53121 174.26607 10000 ft 172 kts 175°
2026-04-22 06:05 -39.54302 174.26786 10000 ft 171 kts 175°
2026-04-22 06:05 -39.55092 174.26907 10000 ft 172 kts 175°
2026-04-22 06:05 -39.56278 174.27097 10001 ft 171 kts 175°
2026-04-22 06:06 -39.57464 174.27279 10001 ft 172 kts 175°
2026-04-22 06:06 -39.58659 174.27471 10008 ft 171 kts 175°
2026-04-22 06:06 -39.59835 174.27652 10004 ft 172 kts 175°
2026-04-22 06:06 -39.61023 174.27845 10001 ft 172 kts 175°
2026-04-22 06:07 -39.62209 174.28023 10000 ft 172 kts 175°
2026-04-22 06:07 -39.63389 174.28220 10000 ft 172 kts 175°
2026-04-22 06:07 -39.64522 174.28417 10000 ft 172 kts 174°
2026-04-22 06:07 -39.65746 174.28630 9999 ft 172 kts 174°
2026-04-22 06:08 -39.66939 174.28838 9999 ft 172 kts 174°
2026-04-22 06:08 -39.68092 174.29039 10000 ft 172 kts 174°
2026-04-22 06:08 -39.69302 174.29250 10000 ft 172 kts 174°
2026-04-22 06:08 -39.70473 174.29455 10000 ft 172 kts 174°
2026-04-22 06:09 -39.71681 174.29666 10000 ft 172 kts 174°
2026-04-22 06:09 -39.72859 174.29871 10001 ft 172 kts 174°
2026-04-22 06:09 -39.74032 174.30074 10007 ft 171 kts 174°
2026-04-22 06:09 -39.75222 174.30279 10009 ft 171 kts 174°
2026-04-22 06:10 -39.76397 174.30481 10009 ft 171 kts 174°
2026-04-22 06:10 -39.77585 174.30684 10002 ft 172 kts 174°
2026-04-22 06:10 -39.78767 174.30887 10001 ft 172 kts 174°
2026-04-22 06:10 -39.79930 174.31086 10001 ft 172 kts 174°
2026-04-22 06:11 -39.81113 174.31288 10001 ft 172 kts 174°
2026-04-22 06:11 -39.82314 174.31493 10000 ft 172 kts 174°
2026-04-22 06:11 -39.83511 174.31699 10000 ft 172 kts 174°
2026-04-22 06:11 -39.84683 174.31900 10000 ft 172 kts 174°
2026-04-22 06:12 -39.85873 174.32104 10000 ft 172 kts 174°
2026-04-22 06:12 -39.87042 174.32304 10000 ft 172 kts 174°
2026-04-22 06:12 -39.88231 174.32508 10000 ft 172 kts 174°
2026-04-22 06:12 -39.89415 174.32711 9999 ft 172 kts 174°
2026-04-22 06:13 -39.90605 174.32915 10001 ft 171 kts 174°
2026-04-22 06:13 -39.91777 174.33112 10010 ft 171 kts 174°
2026-04-22 06:13 -39.92944 174.33307 10012 ft 171 kts 174°
2026-04-22 06:13 -39.94127 174.33505 10014 ft 171 kts 174°
2026-04-22 06:14 -39.95318 174.33704 10007 ft 172 kts 174°
2026-04-22 06:14 -39.96507 174.33902 10002 ft 172 kts 174°
2026-04-22 06:14 -39.97705 174.34102 10001 ft 172 kts 174°
2026-04-22 06:14 -39.98885 174.34298 10001 ft 172 kts 174°
2026-04-22 06:15 -40.00054 174.34493 9999 ft 172 kts 174°
2026-04-22 06:15 -40.01233 174.34690 9998 ft 172 kts 174°
2026-04-22 06:15 -40.02423 174.34889 9998 ft 172 kts 174°
2026-04-22 06:15 -40.03623 174.35083 9998 ft 171 kts 175°
2026-04-22 06:16 -40.04800 174.35272 9998 ft 171 kts 175°
2026-04-22 06:16 -40.05964 174.35449 9998 ft 171 kts 175°
2026-04-22 06:16 -40.07152 174.35643 9998 ft 171 kts 175°
2026-04-22 06:16 -40.08316 174.35825 10000 ft 171 kts 175°
2026-04-22 06:17 -40.09502 174.36014 10004 ft 171 kts 175°
2026-04-22 06:17 -40.10694 174.36209 10001 ft 171 kts 174°
2026-04-22 06:17 -40.11870 174.36401 10001 ft 171 kts 174°
2026-04-22 06:17 -40.13066 174.36596 10002 ft 171 kts 174°
2026-04-22 06:18 -40.14241 174.36788 10002 ft 171 kts 174°
2026-04-22 06:18 -40.15427 174.36981 10002 ft 171 kts 174°
2026-04-22 06:18 -40.16604 174.37173 10003 ft 171 kts 174°
2026-04-22 06:18 -40.17790 174.37367 10000 ft 171 kts 174°
2026-04-22 06:19 -40.18986 174.37564 10000 ft 171 kts 174°
2026-04-22 06:19 -40.20166 174.37756 10005 ft 171 kts 174°
2026-04-22 06:19 -40.21331 174.37946 10001 ft 171 kts 174°
2026-04-22 06:19 -40.22529 174.38140 10001 ft 171 kts 174°
2026-04-22 06:20 -40.23692 174.38329 10003 ft 171 kts 174°
2026-04-22 06:20 -40.24882 174.38523 10004 ft 171 kts 175°
2026-04-22 06:20 -40.26061 174.38712 10014 ft 170 kts 175°
2026-04-22 06:20 -40.27228 174.38881 10021 ft 170 kts 175°
2026-04-22 06:21 -40.28398 174.39065 10014 ft 170 kts 175°
2026-04-22 06:21 -40.29582 174.39256 10003 ft 171 kts 175°
2026-04-22 06:21 -40.30755 174.39447 10001 ft 170 kts 174°
2026-04-22 06:21 -40.31940 174.39627 10000 ft 170 kts 175°
2026-04-22 06:22 -40.33102 174.39810 10000 ft 170 kts 175°
2026-04-22 06:22 -40.34290 174.40002 10000 ft 170 kts 175°
2026-04-22 06:22 -40.35464 174.40180 9996 ft 170 kts 175°
2026-04-22 06:22 -40.36644 174.40348 9996 ft 170 kts 175°
2026-04-22 06:23 -40.37798 174.40523 9996 ft 170 kts 175°
2026-04-22 06:23 -40.38986 174.40716 9996 ft 170 kts 175°
2026-04-22 06:23 -40.40162 174.40894 9996 ft 170 kts 175°
2026-04-22 06:23 -40.41328 174.41076 9999 ft 170 kts 175°
2026-04-22 06:24 -40.43672 174.41438 10005 ft 169 kts 175°
2026-04-22 06:24 -40.44840 174.41611 10009 ft 169 kts 175°
2026-04-22 06:24 -40.46003 174.41800 10009 ft 169 kts 175°
2026-04-22 06:25 -40.47169 174.41981 10010 ft 169 kts 175°
2026-04-22 06:25 -40.48333 174.42163 10009 ft 169 kts 175°
2026-04-22 06:25 -40.49500 174.42351 10009 ft 169 kts 175°
2026-04-22 06:25 -40.50665 174.42528 10009 ft 169 kts 175°
2026-04-22 06:26 -40.51830 174.42717 10008 ft 169 kts 175°
2026-04-22 06:26 -40.52985 174.42889 10002 ft 169 kts 175°
2026-04-22 06:26 -40.54157 174.43077 10001 ft 169 kts 175°
2026-04-22 06:26 -40.55336 174.43259 10001 ft 169 kts 175°
2026-04-22 06:27 -40.56507 174.43445 10002 ft 169 kts 175°
2026-04-22 06:27 -40.57667 174.43620 10002 ft 168 kts 175°
2026-04-22 06:27 -40.58828 174.43789 10003 ft 168 kts 175°
2026-04-22 06:27 -40.59987 174.43959 10004 ft 168 kts 175°
2026-04-22 06:28 -40.61142 174.44129 10007 ft 167 kts 176°
2026-04-22 06:28 -40.62176 174.44285 10010 ft 166 kts 176°
2026-04-22 06:28 -40.63337 174.44463 10010 ft 166 kts 175°
2026-04-22 06:28 -40.64462 174.44636 10010 ft 166 kts 175°
2026-04-22 06:29 -40.65615 174.44833 10010 ft 166 kts 175°
2026-04-22 06:29 -40.66763 174.45020 10010 ft 166 kts 175°
2026-04-22 06:29 -40.67911 174.45209 10012 ft 166 kts 175°
2026-04-22 06:29 -40.69054 174.45398 10011 ft 166 kts 175°
2026-04-22 06:30 -40.70199 174.45590 10010 ft 166 kts 175°
2026-04-22 06:30 -40.71329 174.45785 10010 ft 166 kts 175°
2026-04-22 06:30 -40.72494 174.45993 10011 ft 166 kts 174°
2026-04-22 06:30 -40.73632 174.46197 10009 ft 166 kts 174°
2026-04-22 06:31 -40.74788 174.46405 10001 ft 166 kts 174°
2026-04-22 06:31 -40.75921 174.46608 10002 ft 166 kts 175°
2026-04-22 06:31 -40.77066 174.46813 10001 ft 165 kts 174°
2026-04-22 06:31 -40.78210 174.47018 10001 ft 165 kts 175°
2026-04-22 06:32 -40.79342 174.47222 10003 ft 164 kts 174°
2026-04-22 06:32 -40.80468 174.47426 10004 ft 164 kts 175°
2026-04-22 06:32 -40.81592 174.47628 10004 ft 164 kts 174°
2026-04-22 06:32 -40.82729 174.47833 10005 ft 163 kts 175°
2026-04-22 06:33 -40.83848 174.48035 10004 ft 163 kts 175°
2026-04-22 06:33 -40.84978 174.48239 10004 ft 163 kts 174°
2026-04-22 06:33 -40.86103 174.48441 10004 ft 163 kts 175°
2026-04-22 06:33 -40.87225 174.48630 10003 ft 163 kts 175°
2026-04-22 06:34 -40.88360 174.48829 10004 ft 163 kts 175°
2026-04-22 06:34 -40.89486 174.49031 10003 ft 163 kts 175°
2026-04-22 06:34 -40.90604 174.49220 10003 ft 163 kts 175°
2026-04-22 06:34 -40.91736 174.49417 10003 ft 163 kts 175°
2026-04-22 06:35 -40.92858 174.49615 10004 ft 163 kts 175°
2026-04-22 06:35 -40.93981 174.49807 10003 ft 163 kts 175°
2026-04-22 06:35 -40.95108 174.50006 10002 ft 163 kts 175°
2026-04-22 06:35 -40.96226 174.50197 10004 ft 163 kts 175°
2026-04-22 06:36 -40.97368 174.50398 10004 ft 163 kts 175°
2026-04-22 06:36 -40.98475 174.50583 10004 ft 163 kts 175°
2026-04-22 06:36 -40.99599 174.50780 10004 ft 163 kts 175°
2026-04-22 06:36 -41.00659 174.51341 10004 ft 169 kts 148°
2026-04-22 06:37 -41.01487 174.52467 10009 ft 172 kts 137°
2026-04-22 06:37 -41.02237 174.53707 10005 ft 174 kts 135°
2026-04-22 06:37 -41.02973 174.54960 10004 ft 174 kts 135°
2026-04-22 06:37 -41.03719 174.56203 10004 ft 173 kts 135°
2026-04-22 06:38 -41.04476 174.57455 10004 ft 173 kts 136°
2026-04-22 06:38 -41.05231 174.58699 10002 ft 174 kts 133°
2026-04-22 06:38 -41.05923 174.60033 10005 ft 175 kts 131°
2026-04-22 06:38 -41.06629 174.61341 10002 ft 175 kts 133°
2026-04-22 06:39 -41.07389 174.62597 10005 ft 174 kts 136°
2026-04-22 06:39 -41.08180 174.63795 10005 ft 174 kts 138°
2026-04-22 06:39 -41.09003 174.64979 10004 ft 174 kts 139°
2026-04-22 06:39 -41.09819 174.66158 10003 ft 174 kts 138°
2026-04-22 06:40 -41.10618 174.67336 9841 ft 163 kts 138°
2026-04-22 06:40 -41.11336 174.68405 9581 ft 149 kts 137°
2026-04-22 06:40 -41.11666 174.69697 9314 ft 153 kts 100°
2026-04-22 06:40 -41.11592 174.71096 9067 ft 146 kts 94°
2026-04-22 06:41 -41.11520 174.72383 8815 ft 139 kts 98°
2026-04-22 06:41 -41.11508 174.73626 8563 ft 133 kts 101°
2026-04-22 06:41 -41.11542 174.74855 8305 ft 129 kts 104°
2026-04-22 06:41 -41.11604 174.76030 8051 ft 125 kts 106°
2026-04-22 06:42 -41.11684 174.77162 7799 ft 122 kts 108°
2026-04-22 06:42 -41.11777 174.78286 7544 ft 120 kts 108°
2026-04-22 06:42 -41.11890 174.79358 7294 ft 115 kts 116°
2026-04-22 06:42 -41.12111 174.80365 7043 ft 114 kts 116°
2026-04-22 06:43 -41.12184 174.81434 6792 ft 115 kts 111°
2026-04-22 06:43 -41.12600 174.82134 6510 ft 94 kts 168°
2026-04-22 06:43 -41.13229 174.82152 6295 ft 90 kts 184°
2026-04-22 06:43 -41.13845 174.82070 6052 ft 90 kts 185°
2026-04-22 06:44 -41.14467 174.81981 5800 ft 89 kts 185°
2026-04-22 06:44 -41.15088 174.81899 5550 ft 89 kts 184°
2026-04-22 06:44 -41.15703 174.81830 5299 ft 89 kts 183°
2026-04-22 06:44 -41.16108 174.81792 5135 ft 88 kts 182°
2026-04-22 06:45 -41.16930 174.81736 4803 ft 88 kts 184°
2026-04-22 06:45 -41.17334 174.81748 4640 ft 88 kts 182°
2026-04-22 06:45 -41.17947 174.81762 4389 ft 88 kts 183°
2026-04-22 06:45 -41.18760 174.81732 4056 ft 87 kts 185°
2026-04-22 06:46 -41.19173 174.81698 3886 ft 87 kts 185°
2026-04-22 06:46 -41.19764 174.81635 3641 ft 86 kts 186°
2026-04-22 06:46 -41.20361 174.81565 3390 ft 86 kts 185°
2026-04-22 06:46 -41.20954 174.81499 3141 ft 85 kts 185°
2026-04-22 06:47 -41.21538 174.81441 2892 ft 85 kts 184°
2026-04-22 06:47 -41.22127 174.81396 2638 ft 85 kts 189°
2026-04-22 06:47 -41.22721 174.81448 2389 ft 85 kts 184°
2026-04-22 06:47 -41.23316 174.81437 2138 ft 85 kts 187°
2026-04-22 06:48 -41.23906 174.81347 1892 ft 84 kts 187°
2026-04-22 06:48 -41.24478 174.81201 1644 ft 83 kts 186°
2026-04-22 06:48 -41.25046 174.81120 1402 ft 82 kts 182°
2026-04-22 06:48 -41.25576 174.81098 1270 ft 71 kts 179°
2026-04-22 06:49 -41.26038 174.81098 1140 ft 62 kts 179°
2026-04-22 06:49 -41.26446 174.81101 1022 ft 54 kts 180°
2026-04-22 06:49 -41.26795 174.81111 910 ft 47 kts 181°
2026-04-22 06:49 -41.27121 174.81101 805 ft 46 kts 182°
2026-04-22 06:50 -41.27441 174.81077 697 ft 46 kts 183°
2026-04-22 06:50 -41.27785 174.81047 662 ft 54 kts 182°
2026-04-22 06:50 -41.28113 174.81021 815 ft 51 kts 183°
2026-04-22 06:50 -41.28520 174.80987 830 ft 66 kts 183°
2026-04-22 06:51 -41.29032 174.80949 820 ft 80 kts 182°
2026-04-22 06:51 -41.29629 174.80905 826 ft 88 kts 182°
2026-04-22 06:51 -41.30211 174.80864 627 ft 84 kts 182°
2026-04-22 06:51 -41.30804 174.80820 351 ft 88 kts 183°
2026-04-22 06:52 -41.31401 174.80796 167 ft 82 kts 182°
2026-04-22 06:52 -41.31930 174.80751 69 ft 69 kts 185°
2026-04-22 06:52 -41.32339 174.80717 51 ft 49 kts 180°
2026-04-22 06:52 -41.32506 174.80715 46 ft 0 kts 181°